Kenosha, WI

12:38 PM CDT on July 22, 2017 (GMT -0500)
Kenosha Regional

Weather History for KENW - July, 2013

Change the Weather History Date:

Sunday, July 28, 2013

  Actual Average Record
Temperature  
Mean Temperature 59 °F -  
Max Temperature 68 °F 78 °F 96 °F (1988)
Min Temperature 52 °F 62 °F 49 °F (1962)
Degree Days  
Heating Degree Days 6    
Growing Degree Days 9 (Base 50)    
Moisture  
Dew Point 49 °F    
Average Humidity 72    
Maximum Humidity 89    
Minimum Humidity 52    
Precipitation  
Precipitation 0.00 in - - ()
Sea Level Pressure  
Sea Level Pressure 29.92 in    
Wind  
Wind Speed 9 mph (West)    
Max Wind Speed 14 mph    
Max Gust Speed 22 mph    
Visibility 10 miles    
Events Rain    
Averages and records for this station are not official NWS values.
T = Trace of Precipitation, MM = Missing Value Source: NWS Daily Summary

Daily Weather History Graph

Daily Weather History Graph

Search for Another Location

Airport or City:

Trip Planner

Search our weather history database for the weather conditions in past years. The results will help you decide how hot, cold, wet, or windy it might be!

Date:

Astronomy

Jul. 28, 2013 Rise Set
Actual Time 5:39 AM CDT 8:15 PM CDT
Civil Twilight 5:07 AM CDT 8:48 PM CDT
Nautical Twilight 4:26 AM CDT 9:28 PM CDT
Astronomical Twilight 3:40 AM CDT 10:14 PM CDT
Moon 11:26 PM CDT (7/28) 12:32 PM CDT (7/28)
Length of Visible Light 15h 40m
Length of Day
14h 36m
Waning Gibbous, 60% of the Moon is Illuminated
Jul 28
Waning Gibbous
Jul 29
Last Quarter
Aug 6
New
Aug 14
First Quarter
Aug 20
Full

Hourly Weather History & Observations

Time (CDT) Temp. Dew Point Humidity Pressure Visibility Wind Dir Wind Speed Gust Speed Precip Events Conditions
12:53 AM 54.0 °F 48.0 °F 80% 29.88 in 10.0 mi West 8.1 mph - N/A   Mostly Cloudy
1:53 AM 55.0 °F 48.0 °F 77% 29.87 in 10.0 mi West 8.1 mph - N/A   Overcast
2:53 AM 53.1 °F 48.9 °F 86% 29.86 in 10.0 mi West 5.8 mph - 0.00 in Rain Light Rain
3:53 AM 53.1 °F 48.9 °F 86% 29.86 in 10.0 mi West 9.2 mph - 0.00 in   Overcast
4:12 AM 53.6 °F 48.2 °F 82% 29.85 in 10.0 mi West 8.1 mph - N/A   Overcast
4:29 AM 53.6 °F 48.2 °F 82% 29.85 in 10.0 mi West 8.1 mph - N/A   Mostly Cloudy
4:53 AM 53.1 °F 48.9 °F 86% 29.86 in 10.0 mi West 8.1 mph - N/A   Mostly Cloudy
5:53 AM 52.0 °F 48.9 °F 89% 29.88 in 10.0 mi West 6.9 mph - N/A   Scattered Clouds
6:18 AM 53.6 °F 48.2 °F 82% 29.88 in 10.0 mi West 6.9 mph - N/A   Mostly Cloudy
6:28 AM 53.6 °F 50.0 °F 88% 29.88 in 10.0 mi West 6.9 mph - N/A   Scattered Clouds
6:53 AM 54.0 °F 50.0 °F 86% 29.89 in 10.0 mi West 9.2 mph - N/A   Partly Cloudy
7:53 AM 55.0 °F 48.9 °F 80% 29.90 in 10.0 mi West 10.4 mph 17.3 mph N/A   Mostly Cloudy
8:53 AM 57.0 °F 48.0 °F 72% 29.90 in 10.0 mi WNW 13.8 mph 21.9 mph N/A   Scattered Clouds
9:53 AM 60.1 °F 48.0 °F 64% 29.91 in 10.0 mi NW 10.4 mph - N/A   Mostly Cloudy
10:53 AM 61.0 °F 48.0 °F 62% 29.92 in 10.0 mi NW 9.2 mph - N/A   Mostly Cloudy
11:00 AM 60.8 °F 48.2 °F 63% 29.92 in 10.0 mi WNW 12.7 mph - N/A   Overcast
11:53 AM 62.1 °F 48.9 °F 62% 29.92 in 10.0 mi NW 12.7 mph 19.6 mph N/A   Mostly Cloudy
12:53 PM 64.9 °F 48.9 °F 56% 29.94 in 10.0 mi WNW 13.8 mph 17.3 mph N/A   Partly Cloudy
1:53 PM 64.9 °F 48.9 °F 56% 29.94 in 10.0 mi West 10.4 mph - N/A   Scattered Clouds
2:53 PM 66.9 °F 48.9 °F 52% 29.94 in 10.0 mi West 12.7 mph 20.7 mph N/A   Scattered Clouds
3:53 PM 66.9 °F 50.0 °F 54% 29.95 in 10.0 mi West 12.7 mph - N/A   Scattered Clouds
4:53 PM 66.0 °F 48.0 °F 52% 29.96 in 10.0 mi WNW 11.5 mph 19.6 mph N/A   Scattered Clouds
5:53 PM 66.9 °F 50.0 °F 54% 29.96 in 10.0 mi West 12.7 mph 20.7 mph N/A   Scattered Clouds
6:53 PM 64.9 °F 51.1 °F 61% 29.97 in 10.0 mi West 9.2 mph - N/A   Partly Cloudy
7:53 PM 62.1 °F 51.1 °F 67% 29.97 in 10.0 mi West 6.9 mph - N/A   Clear
8:53 PM 57.9 °F 51.1 °F 78% 29.99 in 10.0 mi WSW 5.8 mph - N/A   Partly Cloudy
9:53 PM 57.9 °F 52.0 °F 81% 30.00 in 10.0 mi West 5.8 mph - N/A   Mostly Cloudy
10:53 PM 57.0 °F 51.1 °F 81% 30.00 in 10.0 mi West 5.8 mph - N/A   Mostly Cloudy
11:53 PM 59.0 °F 53.1 °F 81% 30.01 in 10.0 mi West 8.1 mph - N/A   Mostly Cloudy